User: anonymous   Login
Location: Bismarck
(46.7731°N, 100.8200°W)
Time: 20:37:17
(UTC-05:00)
Language:

Cosmos 1125 Rocket - Orbit

View from above orbital plane
View from above orbital plane
View from above satellite
View from above satellite

Ground track
Ground track

The orbit data is extracted from the following two-line orbital elements,

1 11511U 79078B   17112.94846492 +.00000050 +00000-0 +25721-4 0  9994
2 11511 074.0378 056.8282 0016451 311.1127 048.8605 14.36763693970425
Epoch (UTC): 22 April 2017 22:45:47
Eccentricity: 0.0016451
inclination: 74.0378°
perigee height: 757 km
apogee height: 781 km
right ascension of ascending node: 56.8282°
argument of perigee: 311.1127°
revolutions per day: 14.36763693
mean anomaly at epoch: 48.8605°
orbit number at epoch: 97042

The dashed part of the orbit path shows where the satellite is in the earth's shadow,  

DLR